Location: Erba
(45.8000°N, 9.2500°E)
Time: 18:29:13
(UTC+02:00)

ISS - Visible Passes

Search period start: 22 September 2018 00:00
Search period end: 02 October 2018 00:00
Orbit: 403 x 408 km, 51.6° (Epoch: 22 September)

Date Brightness Start Highest point End Pass type
(mag) Time Alt. Az. Time Alt. Az. Time Alt. Az.
22 Sep -2.5 20:25:35 10° SSW 20:28:15 23° SE 20:28:52 21° ESE visible
22 Sep -0.8 22:01:15 10° WSW 22:01:35 12° WSW 22:01:35 12° WSW visible
23 Sep -3.8 21:09:21 10° WSW 21:12:20 71° SW 21:12:20 71° SW visible
24 Sep -3.5 20:17:37 10° SW 20:20:49 48° SE 20:22:54 19° ENE visible
24 Sep -1.2 21:54:15 10° W 21:55:36 21° WNW 21:55:36 21° WNW visible
25 Sep -3.2 21:02:10 10° W 21:05:25 54° NNW 21:06:00 45° NNE visible
26 Sep -3.8 20:10:10 10° WSW 20:13:28 82° NNW 20:16:17 14° ENE visible
26 Sep -1.3 21:47:18 10° WNW 21:48:57 22° NW 21:48:57 22° NW visible
27 Sep -2.5 20:55:08 10° W 20:58:13 36° NNW 20:59:09 29° NNE visible
28 Sep -3.0 20:02:58 10° W 20:06:11 47° NNW 20:09:15 11° NE visible
28 Sep -1.3 21:40:16 10° WNW 21:41:55 22° NW 21:41:55 22° NW visible
29 Sep -2.3 20:48:06 10° WNW 20:51:04 29° N 20:51:58 25° NNE visible
30 Sep -2.4 19:55:54 10° WNW 19:58:57 33° NNW 20:01:58 10° NE visible
30 Sep -1.4 21:33:01 10° NW 21:34:39 22° NW 21:34:39 22° NW visible
01 Oct -2.3 20:40:57 10° WNW 20:43:53 28° N 20:44:38 25° NNE visible
